ROMMA est une association bénévole à but non lucratif. Votre soutien est indispensable : ADHERER à ROMMA ou FAIRE un DON

La Ferrière - (38, Isère)

Belledonne - Vallée du Haut Bréda (1000 m)   Longitude: 06° 04' 55" E   Latitude: 45° 18' 16" N Station romma n°33
 

Détail journalier du     <<     >>

Température Precipitation Humidité Pression Vent Dir Rafale Dir. rafale
Heure (°C) (mm) (%) (hPa) (km/h) (km/h)
01:00 11.107310084ONO9ONO
02:00 10.107510086ONO10ONO
03:00 9.807810081ONO7ONO
04:00 8.408110085ONO8ONO
05:00 8.808210083ONO8ONO
06:00 8.908210082ONO7ONO
07:00 8.408310081ONO5ONO
08:00 9.1085100700ONO
09:00 10.2084100700ONO
10:00 11.908310081ONO4ONO
11:00 17.407410074ONO15E
12:00 19.606410079ESE15ESE
13:00 20.2058100712SE25O
14:00 23.2043100611SO25O
15:00 24.303910068SSO19SSO
16:00 23.1035100611SO34E
17:00 21.9035100612SSO33ESE
18:00 21.40.535100613SO38O
19:00 20.3037100713SO37E
20:00 17.70.345100912OSO46SSO
21:00 17.32.550100911SO33N
22:00 14.605510109N21NNO
23:00 12.906510114N8N
minuit 11.10.27210102N7N

Graphique du 20-10-2019

 

Serveur OMMA